DG5TKE Weather Reports


time (UTC)temp
C
wind
direction
speed
KPH
gust
KPH
rain 1hr
cm
rain 24hr
cm
rain mn
cm
humidity
%
barometer
mb
20260902003006 12 0 0.0 0.0 0.00 0.03 0.00 91 1018.7
20260902002006 12 0 0.0 3.2 0.00 0.03 0.00 91 1018.8
20260902001221 12 0 0.0 3.2 0.00 0.03 0.00 91 1018.8
20260902000003 13 292 1.6 3.2 0.00 0.03 0.00 91 1018.8
20260901235006 13 217 1.6 4.8 0.00 0.03 0.00 90 1018.7
20260901234006 13 311 1.6 6.4 0.00 0.03 0.00 90 1018.6
20260901233003 13 249 3.2 3.2 0.00 0.03 0.00 90 1018.6
20260901232003 13 240 1.6 6.4 0.00 0.03 0.00 90 1018.6
20260901231003 13 0 0.0 4.8 0.00 0.03 0.00 90 1018.6
20260901230004 13 0 0.0 0.0 0.00 0.03 0.00 89 1018.6
20260901225003 14 0 0.0 0.0 0.00 0.03 0.00 90 1018.6
20260901224003 14 0 0.0 0.0 0.00 0.03 0.00 89 1018.6
20260901223004 14 0 0.0 0.0 0.00 0.03 0.00 89 1018.6
20260901222003 14 296 1.6 1.6 0.00 0.03 0.00 89 1018.5
20260901221006 15 290 1.6 4.8 0.00 0.03 0.00 89 1018.5
20260901220008 15 302 0.0 3.2 0.00 0.03 0.00 89 1018.5
20260901215007 15 0 0.0 1.6 0.00 0.03 0.03 89 1018.5
20260901214006 15 0 0.0 3.2 0.00 0.03 0.03 89 1018.5
20260901213003 15 0 0.0 0.0 0.00 0.03 0.03 89 1018.4
20260901212006 15 0 0.0 3.2 0.00 0.03 0.03 88 1018.4
20260901211006 15 0 0.0 4.8 0.00 0.03 0.03 88 1018.4
20260901210003 15 355 1.6 1.6 0.00 0.03 0.03 88 1018.4
20260901205221 15 348 3.2 4.8 0.00 0.03 0.03 87 1018.4
20260901204217 16 318 1.6 4.8 0.00 0.03 0.03 87 1018.5
20260901203006 16 235 3.2 11.3 0.00 0.03 0.03 86 1018.5
20260901202003 16 232 3.2 4.8 0.03 0.03 0.03 85 1018.4
20260901201006 16 275 3.2 9.7 0.03 0.03 0.03 84 1018.2
20260901200217 16 290 4.8 12.9 0.03 0.03 0.03 83 1018.1
20260901195003 16 294 4.8 11.3 0.03 0.03 0.03 82 1018.0
20260901194006 16 299 3.2 14.5 0.03 0.03 0.03 80 1018.1
20260901193006 17 299 6.4 11.3 0.03 0.03 0.03 78 1017.9
20260901192006 17 302 6.4 16.1 0.00 0.03 0.00 75 1017.9
20260901191006 18 287 4.8 14.5 0.00 0.05 0.00 72 1017.8
20260901190006 18 316 6.4 14.5 0.00 0.18 0.00 70 1017.7
20260901185221 18 293 6.4 17.7 0.00 0.18 0.00 71 1017.6
20260901184006 18 228 6.4 9.7 0.00 0.18 0.00 70 1017.0
20260901183006 18 233 4.8 12.9 0.00 0.18 0.00 70 1016.9
20260901182006 19 235 4.8 9.7 0.00 0.18 0.00 69 1016.8
20260901181003 19 222 4.8 8.0 0.00 0.18 0.00 69 1016.6
20260901180006 20 209 3.2 9.7 0.00 0.18 0.00 69 1016.5
20260901175218 20 220 3.2 6.4 0.00 0.18 0.00 68 1016.6
20260901174008 20 237 3.2 6.4 0.00 0.18 0.00 66 1016.5
20260901173003 20 230 4.8 4.8 0.00 0.18 0.00 64 1016.4
20260901172003 21 228 3.2 11.3 0.00 0.18 0.00 63 1016.5
20260901171220 21 228 3.2 8.0 0.00 0.18 0.00 62 1016.5
20260901170009 21 240 4.8 11.3 0.00 0.18 0.00 60 1016.5
20260901165008 21 236 6.4 14.5 0.00 0.18 0.00 58 1016.4
20260901164006 22 219 6.4 16.1 0.00 0.18 0.00 56 1016.4
20260901163006 22 215 4.8 16.1 0.00 0.18 0.00 55 1016.4
20260901162003 22 218 4.8 16.1 0.00 0.18 0.00 55 1016.3
20260901161006 23 243 4.8 12.9 0.00 0.18 0.00 54 1016.4
20260901160004 23 248 4.8 14.5 0.00 0.18 0.00 53 1016.4
20260901155217 23 245 1.6 14.5 0.00 0.18 0.00 55 1016.4
20260901154006 22 240 6.4 11.3 0.00 0.18 0.00 55 1016.4
20260901153006 23 226 4.8 14.5 0.00 0.18 0.00 54 1016.4
20260901152003 23 286 3.2 12.9 0.00 0.18 0.00 56 1016.4
20260901151003 22 242 6.4 11.3 0.00 0.18 0.00 58 1016.5
20260901150006 22 271 6.4 17.7 0.00 0.18 0.00 55 1016.5
20260901145217 23 242 6.4 16.1 0.00 0.18 0.00 56 1016.5
20260901144006 22 230 4.8 16.1 0.00 0.18 0.00 57 1016.6
20260901143006 22 270 8.0 24.1 0.00 0.18 0.00 56 1016.7
20260901142006 23 283 3.2 14.5 0.00 0.18 0.00 55 1016.8
20260901141217 23 293 4.8 14.5 0.00 0.18 0.00 56 1016.8
20260901140003 23 296 4.8 14.5 0.00 0.18 0.00 54 1016.8
20260901135221 23 272 6.4 17.7 0.00 0.18 0.00 54 1016.9
20260901134006 23 308 6.4 20.9 0.00 0.18 0.00 56 1016.8
20260901133006 23 269 4.8 12.9 0.00 0.18 0.00 57 1016.8
20260901132006 23 301 4.8 17.7 0.00 0.18 0.00 56 1016.9
20260901131006 23 291 4.8 17.7 0.00 0.18 0.00 55 1016.9
20260901130006 23 324 6.4 16.1 0.00 0.18 0.00 57 1016.9
20260901125006 23 268 8.0 22.5 0.00 0.18 0.00 56 1017.0
20260901124007 23 237 8.0 17.7 0.00 0.18 0.00 56 1017.0
20260901123220 22 240 9.7 19.3 0.00 0.18 0.00 56 1017.1
20260901122003 22 271 9.7 19.3 0.00 0.18 0.00 57 1017.2
20260901121003 21 271 8.0 19.3 0.00 0.18 0.00 59 1017.1
20260901120220 22 302 6.4 20.9 0.00 0.18 0.00 57 1017.1
20260901115006 22 344 6.4 11.3 0.00 0.18 0.00 59 1017.2
20260901114003 22 315 3.2 14.5 0.00 0.18 0.00 61 1017.2
20260901113003 21 306 4.8 11.3 0.00 0.18 0.00 62 1017.3
20260901112007 21 249 6.4 12.9 0.00 0.18 0.00 60 1017.3
20260901111006 21 239 9.7 19.3 0.00 0.18 0.00 60 1017.4
20260901110220 22 250 8.0 19.3 0.00 0.18 0.00 58 1017.3
20260901105006 22 233 8.0 19.3 0.00 0.18 0.00 58 1017.3
20260901104003 22 286 6.4 24.1 0.00 0.18 0.00 62 1017.2
20260901103217 22 262 6.4 20.9 0.00 0.18 0.00 61 1017.3
20260901102007 21 249 8.0 19.3 0.00 0.18 0.00 65 1017.3
20260901101003 21 259 9.7 22.5 0.00 0.18 0.00 62 1017.4
20260901100007 21 282 6.4 20.9 0.00 0.18 0.00 64 1017.5
20260901095006 21 249 6.4 19.3 0.00 0.18 0.00 64 1017.3
20260901094003 20 243 11.3 27.4 0.00 0.18 0.00 66 1017.4
20260901093003 20 235 6.4 20.9 0.00 0.18 0.00 66 1017.4
20260901092003 20 240 6.4 17.7 0.00 0.18 0.00 67 1017.5
20260901091006 20 256 8.0 19.3 0.00 0.18 0.00 66 1017.3
20260901090003 20 265 9.7 17.7 0.00 0.18 0.00 67 1017.5
20260901085003 20 238 6.4 20.9 0.00 0.18 0.00 68 1017.5
20260901084006 20 265 4.8 14.5 0.00 0.18 0.00 70 1017.5
20260901083006 19 250 4.8 14.5 0.00 0.18 0.00 71 1017.4
20260901082003 18 235 4.8 14.5 0.00 0.18 0.00 72 1017.4
20260901081003 18 215 8.0 19.3 0.00 0.18 0.00 73 1017.3
20260901080003 18 206 4.8 16.1 0.00 0.18 0.00 74 1017.2
20260901075006 18 205 6.4 11.3 0.00 0.18 0.00 75 1017.2
20260901074003 17 217 8.0 16.1 0.00 0.18 0.00 75 1017.1
20260901073003 17 218 6.4 17.7 0.00 0.18 0.00 76 1017.1
20260901072003 17 216 6.4 14.5 0.00 0.18 0.00 77 1017.0
20260901071003 17 212 8.0 20.9 0.00 0.18 0.00 77 1016.9
20260901070003 17 205 8.0 19.3 0.00 0.18 0.00 78 1017.0
20260901065003 17 192 8.0 20.9 0.00 0.18 0.00 78 1016.9
20260901064218 16 203 8.0 20.9 0.00 0.18 0.00 79 1016.9
20260901063006 16 216 3.2 20.9 0.00 0.20 0.00 80 1016.9
20260901062218 16 124 1.6 8.0 0.00 0.23 0.00 82 1017.0
20260901061006 16 132 3.2 9.7 0.00 0.23 0.00 84 1016.8
20260901060006 15 133 3.2 9.7 0.00 0.28 0.00 84 1016.8
20260901055003 15 148 3.2 8.0 0.00 0.30 0.00 85 1016.7
20260901054006 15 165 3.2 6.4 0.00 0.33 0.00 86 1016.7
20260901053003 14 235 3.2 9.7 0.00 0.41 0.00 85 1016.7
20260901052006 14 226 1.6 8.0 0.00 0.48 0.00 85 1016.6
20260901051006 14 181 3.2 6.4 0.00 0.58 0.00 84 1016.5
20260901050006 14 205 4.8 16.1 0.00 0.89 0.00 84 1016.4
20260901045006 14 221 4.8 14.5 0.00 1.07 0.00 85 1016.3
20260901044003 14 223 4.8 9.7 0.00 1.17 0.00 85 1016.2
20260901043006 14 192 4.8 14.5 0.00 1.17 0.00 86 1016.0
20260901042006 14 206 4.8 12.9 0.00 1.17 0.00 87 1016.0
20260901041221 14 200 4.8 9.7 0.00 1.17 0.00 87 1016.0
20260901040217 13 191 3.2 14.5 0.00 1.17 0.00 88 1015.9
20260901035003 13 176 1.6 8.0 0.00 1.17 0.00 88 1015.8
20260901034006 13 248 0.0 3.2 0.00 1.19 0.00 88 1015.7
20260901033217 13 347 1.6 3.2 0.00 1.24 0.00 89 1015.6
20260901032003 13 175 1.6 6.4 0.00 1.27 0.00 88 1015.5
20260901031006 13 184 3.2 11.3 0.00 1.30 0.00 88 1015.4
20260901030006 13 180 1.6 9.7 0.00 1.32 0.00 88 1015.4
20260901025006 13 177 3.2 4.8 0.00 1.32 0.00 88 1015.4
20260901024006 13 197 3.2 12.9 0.00 1.32 0.00 88 1015.4
20260901023008 13 192 4.8 9.7 0.00 1.32 0.00 88 1015.2
20260901022003 13 185 4.8 11.3 0.00 1.32 0.00 89 1015.2
20260901021006 13 177 4.8 11.3 0.00 1.32 0.00 89 1015.2
20260901020007 13 195 4.8 14.5 0.00 1.32 0.00 90 1015.1
20260901015006 13 192 3.2 14.5 0.00 1.32 0.00 90 1015.1
20260901014006 13 192 3.2 8.0 0.00 1.32 0.00 90 1015.0
20260901013003 13 193 1.6 12.9 0.00 1.32 0.00 90 1015.0
20260901012006 13 198 1.6 4.8 0.00 1.32 0.00 90 1014.9
20260901011006 13 199 3.2 8.0 0.00 1.32 0.00 90 1015.0
20260901010003 13 200 4.8 9.7 0.00 1.32 0.00 90 1014.8
20260901005006 13 200 1.6 8.0 0.00 1.32 0.00 91 1014.9
20260901004218 13 209 1.6 8.0 0.00 1.32 0.00 90 1014.9